Regional Weather Roundup
Issued by NWS

Home | Current Version | Previous Version | Text Only | Print | Product List | Glossary On
Versions: 1 2 3 4 5 6 7 8 9 10 11 12 13 14 15 16 17 18 19 20 21 22 23 24 25 26 27 28 29 30 31 32 33 34 35 36 37 38 39 40 41 42 43 44 45 46 47 48 49 50
000
ASUS45 KPSR 191010
RWRAZ

ARIZONA REGIONAL HOURLY WEATHER ROUNDUP
NATIONAL WEATHER SERVICE PHOENIX AZ
300 AM MST FRI SEP 19 2014

NOTE: FAIR INDICATES FEW OR NO CLOUDS BELOW 12,000 FEET WITH NO
SIGNIFICANT WEATHER AND/OR OBSTRUCTIONS TO VISIBILITY.

AZZ001>003-036-191100-
NORTHWEST ARIZONA

CITY           SKY/WX    TMP DP  RH WIND       PRES   REMARKS
BULLHEAD CITY  CLEAR     86  50  28 CALM      29.71R
KINGMAN        CLEAR     71  53  52 SE12      29.89S
$$

AZZ004>008-015-016-018-191100-
NORTH CENTRAL ARIZONA

CITY           SKY/WX    TMP DP  RH WIND       PRES   REMARKS
GRAND CANYON   PTCLDY    51  48  89 CALM      30.14S
PRESCOTT       PTCLDY    66  58  75 VRB3      30.03S
FLAGSTAFF      CLOUDY    55  53  93 CALM      30.16S
PAYSON         CLOUDY    66  61  82 CALM      30.05F
PAGE           PTCLDY    75  52  44 CALM      29.93R
$$

AZZ009>014-017-191100-
NORTHEAST ARIZONA

CITY           SKY/WX    TMP DP  RH WIND       PRES   REMARKS
WINSLOW        CLEAR     66  59  78 SE3       30.01S
SAINT JOHNS    CLEAR     57  55  93 SW3       30.06S
WINDOW ROCK    CLEAR     49  44  83 CALM      30.14
SHOW LOW       CLEAR     57  55  94 S7        30.13S
$$

AZZ023-191100-
GREATER PHOENIX AREA

CITY           SKY/WX    TMP DP  RH WIND       PRES   REMARKS
PHOENIX        PTCLDY    85  67  54 CALM      29.76S
BUCKEYE          N/A     79  72  78 CALM      29.77S
LUKE AFB       PTCLDY    83  70  62 SW6       29.76S
DEER VALLEY    MOCLDY    82  67  60 CALM      29.78S
SCOTTSDALE     CLEAR     82  67  60 E3        29.80F
MESA-GATEWAY   MOCLDY   N/A N/A N/A SE6       29.81S
$$

AZZ027-028-191100-
SOUTHWEST MARICOPA COUNTY AND PINAL COUNTY

CITY           SKY/WX    TMP DP  RH WIND       PRES   REMARKS
CASA GRANDE    MOCLDY    81  72  74 CALM      29.80S
$$

AZZ503-504-507>509-191100-
SOUTHEAST ARIZONA

CITY           SKY/WX    TMP DP  RH WIND       PRES   REMARKS
TUCSON         PTCLDY    74  68  81 SE3       29.90S
DAVIS-MONTHAN  CLOUDY    73  69  85 S6        29.88S
NOGALES        CLOUDY    67  65  93 CALM      29.96F
SIERRA VISTA   PTCLDY    66  63  88 CALM      30.01F
DOUGLAS        CLOUDY    67  65  93 SE5       29.98S
SAFFORD        MOCLDY    69  66  90 E5        29.91S
$$

AZZ020-021-025-026-031-191100-
SOUTHWEST ARIZONA

CITY           SKY/WX    TMP DP  RH WIND       PRES   REMARKS
YUMA           CLEAR     82  55  39 S3        29.72S
$$

CAZ031-033-041-043-047-048-061-191100-
SOUTHERN CALIFORNIA

CITY           SKY/WX    TMP DP  RH WIND       PRES   REMARKS
DOWNTOWN L.A.  MOCLDY    67  62  84 CALM      29.87S
L.A. AIRPORT   PTCLDY    67  62  84 W5        29.87F
SAN DIEGO      MOCLDY    72  65  78 NW3       29.88S
BURBANK        CLEAR     66  60  81 SE5       29.87S
ONTARIO        CLOUDY    69  60  73 W5        29.88F
RIVERSIDE      CLOUDY    69  61  75 CALM      29.88F
PALM SPRINGS   CLEAR     78  60  53 SE6       29.73S
EL CENTRO NAS  CLEAR     83  56  39 W20       29.70F
IMPERIAL       CLEAR     81  57  43 W15G24    29.69F
BLYTHE         CLEAR     80  59  48 S9        29.71R
NEEDLES        PTCLDY    87  44  22 W8        29.71R
$$

NVZ020-UTZ003-191100-
SOUTHERN NEVADA-UTAH

CITY           SKY/WX    TMP DP  RH WIND       PRES   REMARKS
LAS VEGAS      CLEAR     79  45  29 S14       29.75R
SALT LAKE CITY MOCLDY    67  54  63 S5        29.96R THUNDER
$$

NMZ009-TXZ055-191100-
NEW MEXICO-WEST TEXAS

CITY           SKY/WX    TMP DP  RH WIND       PRES   REMARKS
ALBUQUERQUE    CLOUDY    66  58  75 N6        30.07R
EL PASO        MOCLDY    67  65  93 NE6       29.94S
$$


........................KEY........................
SKY/WX - SKY CONDITION/WEATHER
TMP    - TEMPERATURE IN FAHRENHEIT
DP     - DEW POINT IN FAHRENHEIT
RH     - RELATIVE HUMIDITY IN PERCENT
WIND   - DIRECTION AND SPEED IN MILES PER HOUR (MPH)
VRB    - VARIABLE WIND DIRECTION
PRES   - MEAN SEA LEVEL PRESSURE IN INCHES OF MERCURY
         F - FALLING PRESSURE   R - RISING PRESSURE
         S - STEADY PRESSURE
VSB    - VISIBILITY IN MILES
HX     - HEAT INDEX IN FAHRENHEIT
WCI    - WIND CHILL INDEX IN FAHRENHEIT
TC     - TEMPERATURE IN CELSIUS WHICH IS ALSO KNOWN AS
         TEMPERATURE IN CENTIGRADE
AFB    - AIR FORCE BASE
         LUKE AFB IS LUKE AIR FORCE BASE
         DAVIS-MONTHAN IS DAVIS-MONTHAN AIR FORCE BASE
NAS    - NAVAL AIR STATION
         EL CENTRO NAS IS EL CENTRO NAVAL AIR STATION
N/A    - NOT AVAILABLE


USA.gov is the U.S. government's official web portal to all federal, state and local government web resources and services.